RH
27 27 30 30 30 29 29 32 32 30 27 25 24 23 22 21 18 16 15 17 20 24 27 28 29 29 28 27 28 29 31 29 28 28 28 27 26 24 22 20 19 20 21 22 24 25 26 27 28 30 29 29 29 29 28 26 27 28 28 29 31 31 30 25 23 22 21 21 21 20 20 19 20 20 22 25 27 28 27 25 24 23 22 21 21 20 20 20 22 26 30 29 28 27 26 26 26 26 26 26 25 25 26
29 27 28 29 29 29 27 31 31 30 28 25 24 23 21 21 18 16 15 17 20 22 26 28 28 27 26 26 26 28 31 30 29 29 28 27 26 25 23 20 20 20 22 23 25 26 27 29 30 30 28 29 30 30 27 27 28 29 30 30 30 30 29 26 26 26 23 24 23 22 21 20 20 21 23 25 26 25 24 23 23 22 22 21 21 20 20 20 24 29 33 31 31 30 27 27 27 27 26 26 26 26 26
30 27 27 28 28 28 28 31 32 30 29 25 24 24 22 22 20 17 17 20 21 23 25 27 27 26 25 25 26 27 29 30 29 29 28 27 26 25 24 21 20 21 23 24 25 27 28 29 30 30 29 30 30 30 28 28 29 30 32 31 30 30 28 26 26 26 25 25 24 23 22 21 21 21 22 24 24 24 23 22 22 22 21 21 20 20 20 20 23 28 34 32 30 29 28 28 28 27 27 26 26 26 26
31 28 26 27 28 28 28 31 31 31 29 26 24 23 23 23 21 19 18 22 24 25 26 28 28 28 26 26 26 27 27 28 28 29 28 27 26 25 24 22 21 21 23 24 26 26 28 28 29 30 30 30 31 31 30 30 30 31 32 32 31 29 24 24 25 24 22 23 23 23 23 22 22 22 22 23 24 23 22 22 22 21 21 20 20 20 19 20 21 24 29 29 29 29 29 28 27 27 27 26 26 26 27
34 30 27 27 28 29 29 31 31 31 30 28 26 24 25 23 22 20 19 23 26 28 28 30 31 32 30 29 28 27 27 27 28 28 28 27 26 25 25 23 21 21 23 24 25 26 28 27 28 29 29 29 29 30 30 30 30 30 30 30 28 26 24 24 24 22 21 22 22 23 23 23 23 23 23 24 24 23 22 21 21 21 21 21 20 20 20 20 20 21 22 25 25 25 25 26 26 26 26 26 26 27 27
36 33 30 28 28 29 31 31 31 30 29 31 29 27 25 23 22 21 20 23 26 29 30 31 35 37 37 33 31 29 28 27 27 27 27 27 26 26 25 23 22 21 23 24 25 26 29 28 29 30 29 29 30 30 30 30 30 30 29 30 28 26 25 25 24 23 21 21 22 23 23 24 24 23 23 24 25 24 22 21 21 21 21 21 20 20 20 20 20 20 21 22 23 23 24 24 25 25 26 26 27 27 28
38 36 33 30 29 30 31 31 31 30 28 31 30 27 24 22 22 22 22 23 26 30 32 33 37 42 44 40 35 31 29 27 27 26 26 26 26 25 25 23 22 21 23 24 25 27 29 30 30 29 29 29 30 30 30 30 29 30 31 30 27 25 26 25 24 23 22 21 22 23 24 24 24 24 24 25 25 24 23 21 20 20 20 21 21 21 20 20 20 21 21 21 22 23 23 24 25 25 26 27 27 28 28
40 38 37 33 31 30 30 31 30 29 29 29 28 26 24 22 24 26 28 26 28 32 36 37 40 45 48 46 40 33 29 27 26 25 25 24 24 24 23 22 21 21 23 24 25 27 28 32 32 30 29 29 29 30 30 30 30 30 31 31 28 26 26 26 26 24 23 22 22 23 23 24 25 25 25 25 25 24 23 22 21 20 20 20 20 21 21 21 21 21 22 22 22 23 23 24 25 25 26 27 28 28 29
41 40 39 36 33 30 29 30 30 30 30 31 29 27 24 24 29 33 33 28 30 35 39 40 46 50 48 49 44 36 29 26 25 24 24 23 22 22 22 21 21 22 24 25 26 26 26 30 31 31 30 29 29 30 30 32 31 30 31 31 29 27 25 27 27 26 24 23 23 23 23 24 24 25 25 25 24 24 23 23 22 21 20 20 20 20 21 22 22 22 22 23 23 23 24 24 25 26 26 27 28 29 30
42 41 41 39 35 32 31 31 31 32 32 32 30 27 25 28 34 38 35 29 30 35 39 41 47 52 48 48 45 38 30 27 25 24 23 22 22 22 22 22 22 23 25 25 26 26 25 28 30 31 31 30 30 30 29 32 32 30 31 28 26 25 26 27 27 27 26 24 23 23 23 24 24 25 25 25 25 24 24 24 23 23 22 21 20 20 20 21 22 23 23 23 24 24 24 25 25 26 27 28 28 29 30
44 43 43 41 38 35 35 34 34 33 33 31 29 27 26 31 36 38 33 27 29 35 40 43 49 53 48 45 42 39 32 29 28 26 24 23 23 23 23 23 23 24 25 26 26 26 24 27 30 31 30 30 30 30 29 30 30 31 31 28 25 24 26 28 28 27 27 25 24 23 23 24 24 25 26 26 25 25 24 25 24 24 24 23 22 21 21 21 21 22 23 24 24 24 25 25 26 27 28 29 29 30 31
45 44 44 42 40 38 39 37 36 34 33 31 29 28 27 31 33 33 30 26 28 35 44 47 53 56 48 43 39 37 34 32 31 29 26 25 24 24 24 24 24 24 24 26 26 26 24 26 29 31 30 30 30 30 30 29 30 31 31 28 26 25 26 28 28 27 27 26 25 24 23 24 24 24 25 26 26 25 25 25 25 26 26 25 24 24 23 22 22 22 23 24 25 25 26 26 27 28 29 30 30 31 31
43 44 44 44 42 41 41 39 38 37 37 34 30 28 28 29 29 29 27 25 27 35 48 52 56 56 48 42 39 37 35 34 32 31 30 28 26 26 25 25 25 24 24 25 26 26 25 26 28 31 31 30 30 30 28 30 31 31 30 27 26 26 26 28 28 28 27 27 26 25 24 24 24 24 25 26 26 26 26 26 27 27 27 27 27 27 26 25 25 24 25 25 26 27 27 28 28 29 30 31 31 31 31
41 42 43 43 43 43 42 40 38 37 37 35 32 28 28 28 28 27 25 25 28 35 47 55 58 56 49 42 39 37 36 35 34 33 32 30 29 27 26 26 25 25 24 25 25 25 25 26 28 31 31 30 30 30 26 29 31 31 29 28 27 27 28 30 29 28 28 28 27 27 26 25 24 24 25 26 26 26 26 27 28 28 28 28 29 29 29 28 28 27 27 27 27 28 28 29 30 30 30 31 31 32 32
41 41 41 42 43 44 44 41 38 36 34 35 33 30 28 28 27 25 24 24 27 33 42 54 59 58 51 43 40 38 38 37 36 35 34 33 31 29 28 26 26 25 24 24 25 25 25 25 27 29 30 30 31 30 27 30 31 31 28 27 27 28 30 31 30 29 28 28 28 28 27 26 25 25 25 26 26 26 27 27 28 29 29 29 29 30 30 30 29 29 29 29 29 29 29 30 30 31 31 32 32 32 32
41 40 40 41 43 45 46 42 39 36 34 34 32 30 29 30 29 27 25 25 26 30 39 49 55 56 52 44 41 40 39 38 37 37 36 34 32 31 29 27 26 26 25 24 25 25 25 25 26 27 28 31 31 31 29 31 32 30 27 27 28 29 31 31 31 29 29 29 29 28 29 28 27 26 26 26 27 27 27 28 28 29 30 30 30 31 31 31 31 31 30 30 30 30 30 30 30 31 31 32 32 33 33
40 40 40 41 42 44 46 44 41 37 34 32 31 30 29 30 31 30 28 26 27 30 35 43 48 50 47 42 41 41 40 39 38 38 38 36 34 32 30 29 27 26 25 25 25 25 25 26 26 27 28 31 32 32 32 32 31 29 28 28 28 29 32 32 32 31 30 30 29 29 29 29 28 28 27 27 27 27 28 28 29 29 30 31 31 31 31 31 31 31 31 31 31 31 31 31 31 31 31 32 32 32 33
39 39 39 40 42 43 44 45 43 39 35 32 31 30 29 28 30 32 32 29 28 30 34 39 42 42 39 38 39 40 41 39 39 39 39 37 35 33 31 29 28 27 26 25 25 25 26 26 27 27 28 30 31 32 33 32 30 29 29 28 29 30 33 34 33 32 31 31 31 31 30 30 30 29 28 28 28 28 28 29 29 30 30 31 31 31 32 32 32 32 32 32 31 31 31 31 31 31 31 32 32 32 33
39 38 38 39 40 41 42 43 42 41 38 34 31 30 29 29 29 32 35 33 30 30 34 38 40 40 36 36 37 39 41 40 39 39 39 37 35 33 31 30 29 28 27 26 26 26 26 27 27 27 27 30 31 32 33 32 31 30 29 29 29 30 34 33 33 33 33 33 33 32 32 31 31 30 30 29 29 29 29 30 30 30 31 31 31 31 32 32 32 32 32 32 32 32 31 31 31 31 31 32 32 32 33
40 39 38 39 40 41 41 40 40 40 39 35 32 30 30 31 33 35 38 37 33 31 33 37 39 40 38 37 38 39 41 40 39 38 38 37 35 33 32 30 29 28 28 27 27 26 27 28 28 28 28 30 31 33 34 32 31 30 30 29 29 30 32 33 34 34 33 34 35 35 34 33 32 32 31 31 31 31 30 30 31 31 31 31 31 31 31 31 32 32 32 32 32 32 31 31 32 32 32 32 32 32 33
42 40 39 41 43 43 42 40 38 38 39 36 33 31 31 34 38 42 43 40 36 33 31 34 36 38 39 39 41 42 41 40 38 37 36 35 34 33 32 31 30 28 28 28 28 28 28 28 29 29 30 31 32 33 34 32 31 30 30 30 29 29 29 32 33 34 34 35 36 37 37 36 35 34 34 33 33 33 32 32 32 32 32 32 32 32 31 31 31 31 31 31 31 31 31 31 31 31 32 32 32 33 33
44 42 40 44 47 48 45 42 41 40 39 36 33 31 31 37 42 46 48 43 38 33 30 30 31 32 35 37 40 41 41 37 36 35 36 36 35 33 32 31 30 29 29 29 29 29 29 29 29 30 31 32 32 33 34 32 31 30 30 30 30 29 28 30 32 34 36 35 36 37 38 37 37 36 36 36 36 35 35 35 34 34 34 33 32 32 31 31 31 31 31 31 31 31 31 31 31 31 32 32 33 33 33
47 45 43 47 51 53 50 47 45 44 43 38 34 31 30 36 43 48 49 43 38 33 29 28 27 27 29 32 35 36 37 33 32 32 34 35 35 33 32 32 31 30 29 29 29 30 30 30 30 30 31 32 33 33 34 32 31 30 30 30 30 29 28 27 29 33 35 36 37 37 38 37 37 37 37 37 37 37 37 38 38 38 37 36 34 33 32 31 31 32 32 32 32 32 32 32 32 32 33 34 34 35 35
48 47 46 50 55 57 55 51 49 48 47 41 36 32 29 33 40 48 52 47 40 34 29 28 27 26 27 28 30 31 32 30 29 29 30 32 33 33 31 32 32 31 31 30 30 30 30 30 30 31 31 32 33 33 33 32 31 30 30 30 30 29 28 26 27 30 34 36 37 37 36 36 37 37 37 37 38 38 39 39 39 40 40 40 38 37 35 34 34 34 34 34 34 34 34 34 34 34 34 36 37 38 38
48 48 47 51 56 59 57 55 54 53 52 45 39 33 30 29 35 43 51 51 44 36 29 28 27 26 25 26 27 28 28 27 27 27 28 29 31 31 31 31 32 32 32 31 31 31 31 31 31 31 31 32 33 32 33 31 31 30 30 30 30 29 28 27 25 26 29 32 35 36 35 35 36 36 38 38 38 39 39 39 40 41 41 41 41 40 40 39 38 38 37 37 37 37 38 38 37 36 35 37 39 41 42
48 49 49 52 57 60 59 57 58 58 55 48 42 36 31 29 31 36 45 48 44 37 30 29 28 26 24 25 26 26 25 25 25 25 26 27 28 30 30 31 32 32 33 32 32 32 32 32 32 32 32 32 32 32 32 32 31 30 30 29 29 29 28 27 25 24 24 27 31 33 34 34 34 35 37 37 38 39 40 41 41 42 42 42 42 42 42 41 41 41 41 40 40 40 41 41 41 40 38 38 40 42 44
47 50 51 54 57 60 60 59 60 61 59 53 46 39 33 29 28 30 36 40 39 35 30 30 28 25 23 23 23 24 24 25 25 25 25 26 27 28 30 31 32 32 32 32 32 32 32 32 32 32 32 32 31 32 32 32 31 31 30 29 29 28 28 27 25 24 23 23 25 28 31 32 34 34 35 36 37 39 41 42 42 43 43 43 42 42 42 42 42 42 42 42 42 43 43 43 43 43 41 40 40 42 44
47 50 53 56 58 60 60 60 62 63 62 57 49 40 33 30 27 27 30 33 33 32 30 30 28 26 23 21 21 23 24 25 26 27 27 27 27 27 28 30 31 32 32 31 32 32 32 32 32 33 33 32 32 32 32 32 31 31 30 29 29 28 28 27 26 24 23 22 22 23 25 29 30 32 34 36 37 38 39 40 42 42 42 43 43 42 42 43 43 43 43 44 44 44 44 44 45 45 44 43 43 43 44
50 52 54 57 59 60 60 61 62 63 63 58 51 43 34 30 27 26 27 29 30 31 30 30 30 27 23 22 22 23 25 26 28 29 29 28 27 27 27 29 30 31 31 31 31 31 31 32 32 33 33 33 32 32 32 32 32 31 30 29 28 28 28 27 26 25 23 23 22 22 23 25 26 28 30 33 36 39 39 40 40 40 40 43 43 43 43 42 42 43 45 45 45 45 45 46 47 47 46 47 47 46 46
54 55 57 60 61 61 61 61 62 62 62 59 53 46 36 32 29 27 27 28 30 31 31 31 30 29 26 24 24 24 26 29 30 31 31 30 29 28 28 29 31 32 31 31 31 31 31 31 32 33 33 33 33 33 33 32 32 31 30 28 28 28 27 27 26 25 24 23 23 23 23 24 25 26 28 30 33 36 38 40 41 41 41 41 42 44 44 44 43 44 45 45 43 42 44 46 47 48 48 48 48 48 48
59 59 61 62 63 63 61 61 62 63 62 59 54 47 40 34 31 28 27 28 30 33 33 32 32 31 30 27 25 26 28 30 31 32 32 32 31 31 30 31 32 33 32 31 31 31 31 31 32 33 34 34 34 34 33 32 31 30 29 28 28 28 28 27 26 25 24 23 23 23 23 23 24 26 28 30 33 35 37 39 41 41 41 41 42 43 44 44 45 47 47 47 47 47 46 47 47 47 47 47 47 48 48
63 64 65 65 65 65 63 62 62 63 62 59 54 48 40 35 33 30 28 29 32 34 34 33 33 33 32 31 30 29 30 31 31 31 32 32 31 32 32 33 34 33 32 31 31 31 31 31 32 33 34 35 34 34 33 32 31 29 28 27 27 27 27 26 25 24 24 23 23 23 23 23 24 25 26 30 33 35 36 38 40 41 42 42 43 43 43 45 46 48 48 48 48 48 48 48 48 47 45 44 44 45 46
68 68 70 67 66 66 64 63 63 63 62 59 55 49 42 37 33 31 28 29 32 34 34 35 35 36 36 38 38 36 33 32 31 32 32 31 30 30 31 32 33 33 32 31 31 31 31 31 32 33 34 35 35 34 33 32 31 29 28 27 27 27 27 26 25 24 23 23 23 23 23 24 24 26 26 28 30 33 36 39 40 41 42 42 42 43 44 44 46 47 47 47 48 48 48 48 48 48 47 46 46 46 46
73 72 73 71 69 67 66 65 64 64 63 60 56 51 44 39 34 31 28 28 30 33 35 36 37 39 42 44 43 39 34 32 31 31 31 30 29 28 28 29 30 31 31 30 31 31 32 32 33 34 34 35 34 34 33 32 31 30 28 28 28 27 27 25 24 23 23 22 22 22 23 24 25 26 28 29 30 32 34 37 39 40 41 40 41 42 43 44 45 45 46 46 46 47 47 48 49 49 49 49 49 49 49
79 77 78 75 73 71 70 68 67 66 65 63 59 53 46 40 35 31 29 28 29 31 35 36 39 42 46 47 44 38 33 31 31 31 31 31 29 28 27 27 28 28 29 29 30 31 31 32 33 34 34 34 34 34 34 33 31 30 29 28 28 27 26 25 24 23 22 22 22 23 23 24 26 27 29 30 31 33 33 35 37 40 39 40 41 42 43 44 44 44 45 46 47 48 48 49 49 49 49 50 50 50 49
85 86 84 81 78 76 74 73 71 69 66 64 61 55 48 41 35 31 29 28 28 30 33 35 39 44 48 48 43 36 31 31 31 31 32 31 30 29 29 28 27 27 27 28 29 30 30 31 32 33 34 34 34 34 33 32 31 30 29 28 27 26 25 24 23 23 22 22 22 23 24 25 27 28 30 32 33 34 35 36 37 38 38 40 41 42 42 44 45 45 45 46 47 48 48 49 49 49 49 49 49 48 47
84 90 89 87 85 82 78 77 75 71 67 66 63 58 50 43 36 31 28 28 28 29 30 34 38 42 45 45 40 34 30 31 31 32 32 32 31 31 30 29 29 28 27 28 28 28 28 29 30 31 32 32 32 32 32 31 30 29 28 27 27 26 25 24 23 22 22 22 23 24 25 26 28 30 32 33 35 36 37 38 38 39 39 40 40 40 41 43 44 45 46 46 46 47 47 47 47 47 47 46 45 44 43
72 86 91 91 90 87 83 81 78 74 69 68 65 60 53 45 38 33 30 30 30 30 30 33 36 39 41 39 35 31 30 30 31 32 32 32 32 32 31 31 30 30 29 28 27 27 27 27 28 29 29 30 30 30 30 29 28 27 27 26 26 25 24 24 23 22 22 22 23 25 26 28 30 32 34 35 36 38 39 39 40 40 40 41 41 41 41 42 43 44 44 46 46 46 45 45 44 43 42 41 40 39 38
55 73 87 91 92 91 88 84 81 77 72 70 67 62 55 48 41 36 33 31 31 30 30 32 35 36 36 33 30 29 30 31 32 33 33 34 34 33 33 32 32 31 30 29 28 27 26 26 26 26 27 27 28 28 28 27 26 26 25 25 25 25 24 24 23 23 23 24 25 27 28 30 32 34 36 37 38 39 40 40 41 41 41 41 41 42 42 42 43 43 43 43 43 43 42 42 41 40 39 37 35 34 33
43 56 75 85 91 92 91 87 83 79 75 73 69 64 57 49 43 37 33 31 30 30 29 31 34 35 33 30 29 29 29 30 32 33 35 36 36 36 35 34 33 32 32 31 30 29 27 26 26 26 26 26 26 26 26 26 25 25 25 25 25 25 25 24 24 24 24 25 27 29 31 33 35 36 37 39 39 40 41 41 41 41 41 41 41 41 42 42 42 42 42 41 40 39 38 38 37 36 35 34 33 32 33
39 46 61 76 85 90 91 89 85 81 77 74 71 67 60 51 44 38 32 31 30 29 29 30 32 35 33 30 29 29 30 30 32 34 35 36 37 37 38 35 33 32 32 32 31 30 29 28 27 26 26 27 26 26 26 25 25 25 25 25 25 25 26 26 26 25 26 27 29 31 33 35 36 37 39 40 40 41 41 41 41 41 41 41 41 40 40 40 40 40 40 39 38 37 35 34 33 32 32 33 34 34 36
38 41 49 65 78 87 91 90 87 83 79 76 73 70 65 55 46 38 32 30 29 29 28 29 31 33 33 31 30 30 31 31 32 34 35 37 37 37 37 35 33 32 32 32 32 31 30 29 28 28 27 27 26 26 26 25 25 25 25 25 26 27 27 27 27 26 26 28 30 32 34 36 37 39 39 40 41 41 41 41 41 40 40 40 39 38 38 37 37 36 36 35 34 33 32 32 31 31 32 33 34 36 37
39 39 42 55 71 84 91 92 90 87 82 78 75 73 69 59 49 40 33 30 29 29 28 28 29 31 31 31 30 30 32 33 33 33 34 36 37 36 35 34 33 32 32 31 31 30 30 30 29 28 28 27 26 26 26 25 25 25 25 26 27 28 28 27 26 26 25 27 29 32 35 36 38 39 40 40 41 41 41 40 40 39 38 37 36 35 34 33 32 31 31 31 30 31 31 31 32 32 33 34 35 36 36
38 38 40 50 65 80 90 92 92 90 86 82 78 76 72 64 53 43 34 30 29 29 29 28 28 29 30 31 31 31 32 33 33 33 34 36 37 37 35 34 33 33 32 31 30 29 29 29 28 28 27 27 26 26 26 25 25 25 26 27 27 28 27 26 24 23 23 25 28 31 34 36 37 38 39 39 39 39 39 38 38 37 35 34 32 31 29 28 27 27 27 28 28 29 31 32 33 34 35 35 36 36 36
36 38 40 49 63 77 87 91 92 91 88 84 81 79 76 68 57 46 36 32 30 29 30 29 28 27 28 30 30 31 32 33 33 34 35 36 37 37 36 35 34 33 32 30 29 29 28 28 27 27 27 27 26 26 26 25 25 25 26 27 27 26 25 23 22 21 22 24 27 30 33 35 36 37 38 38 38 37 37 35 34 33 31 29 27 26 24 24 24 24 25 27 29 30 32 33 34 35 36 36 36 36 36
36 38 41 51 62 74 83 88 90 90 88 86 83 81 78 71 62 50 39 33 30 28 29 28 28 26 25 26 28 29 30 31 32 33 35 36 37 37 36 35 34 32 31 30 28 28 27 26 26 26 26 26 25 25 25 25 25 25 26 26 26 24 22 21 20 20 21 23 26 29 31 33 35 35 36 36 35 34 33 32 29 28 26 24 23 22 22 22 23 24 26 28 30 32 33 34 35 36 36 36 37 37 37
37 39 44 54 63 72 78 83 87 88 87 86 84 81 78 73 64 53 42 35 30 28 27 28 28 27 25 24 25 26 28 29 30 32 34 35 36 36 36 35 33 31 29 28 27 26 25 25 25 25 25 25 25 25 25 25 25 25 25 25 24 22 21 20 19 20 21 23 25 27 29 31 32 32 33 33 32 31 29 27 25 24 23 22 22 23 23 24 25 27 28 30 31 32 34 34 35 36 36 36 37 37 37
39 42 48 57 66 72 76 79 83 85 85 85 83 81 78 72 64 55 44 37 32 28 26 27 28 26 25 24 23 24 25 27 30 32 34 35 36 36 36 35 33 30 27 26 24 24 24 24 24 24 24 24 24 24 24 24 24 24 23 22 21 21 20 20 20 20 21 22 23 24 26 27 28 29 29 29 28 27 26 24 24 23 23 24 24 25 26 27 28 30 31 32 32 33 34 34 35 36 36 36 37 37 38
39 43 51 60 68 73 76 77 80 82 84 83 82 80 78 73 65 55 45 38 33 29 26 27 27 26 24 22 21 22 23 26 28 30 33 34 35 35 35 34 31 28 25 23 22 22 22 23 23 23 23 23 23 23 23 23 23 22 22 21 20 20 20 20 21 21 21 21 22 23 24 25 26 26 27 26 26 25 24 24 24 24 24 25 26 27 28 29 30 31 32 32 33 33 34 34 35 35 36 36 37 38 39
38 44 52 61 69 74 77 77 78 80 82 82 81 81 79 73 64 54 45 38 34 30 27 27 26 24 24 23 21 21 22 24 27 29 32 34 35 35 33 31 29 27 24 22 20 21 21 22 22 22 22 22 22 22 22 22 21 21 21 20 21 21 21 21 21 21 21 22 22 23 23 24 25 25 25 25 24 24 24 24 24 25 25 26 27 28 29 30 30 31 31 32 32 33 33 33 34 34 35 35 36 37 39
36 44 53 61 68 73 77 78 78 78 80 82 82 81 79 72 63 53 44 38 33 29 26 25 24 22 21 21 21 21 21 23 26 29 33 35 36 35 33 30 28 26 24 22 21 20 20 20 21 20 20 20 20 20 21 20 21 21 21 21 21 21 21 21 22 22 22 23 23 23 24 24 25 25 24 24 23 23 24 24 25 26 26 28 29 29 30 31 31 32 32 33 33 34 34 34 34 35 36 37 38 39 39
34 43 52 59 65 70 75 77 77 77 78 81 82 81 79 71 61 52 44 37 31 26 23 22 21 20 19 19 18 19 21 23 26 30 34 36 36 35 34 31 27 24 22 23 22 20 19 19 19 19 19 19 19 20 20 21 21 22 22 21 21 21 21 22 22 22 23 23 23 24 24 24 24 24 23 23 23 24 25 26 27 28 29 30 31 32 33 33 34 35 35 36 37 37 37 37 37 38 39 40 41 41 40
31 40 50 56 61 66 72 76 77 77 77 79 81 81 78 70 61 53 45 36 29 23 20 19 19 19 19 19 19 20 21 24 27 32 36 37 36 35 33 29 26 24 23 23 22 21 22 21 19 18 18 19 19 20 21 22 22 22 22 21 21 21 22 22 22 22 23 23 23 24 24 24 23 23 23 24 24 26 27 28 30 31 32 33 34 34 35 36 37 38 39 39 40 40 40 40 41 41 42 43 42 41 40
28 36 46 53 58 62 68 73 75 76 77 78 79 80 78 72 64 55 46 37 28 22 17 18 19 19 19 20 20 21 22 24 29 34 37 39 37 34 31 28 26 25 24 23 21 21 22 24 24 22 19 20 21 21 22 22 22 22 22 21 21 22 22 22 22 23 23 23 24 24 24 24 24 24 24 26 27 29 30 31 32 33 34 35 35 36 37 38 39 40 40 41 41 41 41 41 42 43 43 43 41 40 38
26 31 40 48 54 59 65 70 73 75 76 76 79 80 80 75 67 58 47 37 28 22 17 18 19 19 20 21 21 22 23 25 30 34 38 38 37 34 30 28 27 25 22 22 21 21 20 22 22 21 21 21 21 22 22 22 22 22 22 22 22 22 22 22 23 23 24 25 25 25 25 25 25 26 27 28 30 31 33 34 35 35 36 36 37 38 39 40 41 41 41 41 40 41 41 42 43 43 42 41 40 39 38
25 28 35 44 51 56 61 67 71 74 75 76 79 81 81 78 70 60 49 39 30 23 19 18 18 19 21 22 23 23 23 25 30 34 37 37 36 34 31 29 27 24 22 22 21 21 22 22 22 22 22 22 22 23 23 22 22 22 22 22 22 22 23 23 24 25 25 26 26 26 26 26 27 28 30 31 32 34 35 35 36 36 36 37 38 39 40 41 41 41 41 40 40 41 42 43 43 42 41 40 39 38 37
25 27 32 41 48 55 60 66 70 73 75 77 80 82 82 78 72 63 52 42 33 26 22 20 20 21 22 23 24 24 24 26 29 33 35 35 34 32 30 28 26 24 23 23 23 24 23 22 21 22 24 25 24 23 22 22 22 22 22 22 23 23 24 25 25 26 26 26 26 26 27 28 29 31 32 33 34 35 36 36 36 37 37 38 40 41 42 42 41 41 40 40 41 42 43 43 42 41 40 38 37 37 36
26 27 31 38 46 54 61 66 70 73 76 79 81 82 81 79 73 65 56 45 37 30 25 23 23 23 23 24 24 24 25 27 29 31 32 32 32 31 29 27 26 24 24 25 26 25 24 24 24 25 25 26 25 24 23 23 22 22 22 23 24 24 25 26 26 26 26 26 27 27 29 30 31 32 33 34 35 36 36 36 37 38 39 40 41 42 42 41 40 39 39 40 41 42 43 42 41 39 38 37 36 36 35
27 27 29 35 43 52 60 65 69 73 76 80 82 82 81 78 74 67 59 50 40 33 28 26 24 24 23 23 24 24 26 28 29 30 30 30 30 30 30 28 26 25 24 24 23 24 24 25 26 26 27 26 26 26 26 25 24 23 23 23 24 25 26 26 26 26 26 27 28 29 30 31 32 33 34 35 35 36 36 37 38 39 41 42 42 42 41 40 39 39 40 41 42 42 42 40 39 37 36 35 35 35 34
28 28 28 33 41 50 59 64 68 71 75 80 82 82 81 78 74 69 63 54 44 35 29 27 26 25 23 23 23 24 26 28 29 30 29 29 29 29 29 29 27 26 24 23 23 22 23 24 26 27 28 28 27 26 27 26 26 25 24 24 25 25 26 26 26 26 27 28 30 31 32 33 34 34 35 35 36 37 38 39 40 41 42 42 41 41 39 39 39 40 41 42 42 41 39 38 36 35 35 34 34 33 33
30 28 28 31 38 47 56 62 66 69 73 79 82 83 81 78 75 71 66 57 47 38 31 29 27 26 24 23 23 23 25 27 29 30 29 29 30 30 28 28 28 26 25 24 23 22 22 22 24 25 27 28 28 28 27 27 27 27 27 27 26 25 25 25 25 26 28 30 32 33 34 34 35 35 35 36 37 38 39 41 42 42 42 41 40 39 38 38 40 41 42 42 40 39 37 36 35 34 34 33 33 32 31